TimePDT,TemperatureF,Dew PointF,Humidity,Sea Level PressureIn,VisibilityMPH,Wind Direction,Wind SpeedMPH,Gust SpeedMPH,PrecipitationIn,Events,Conditions,WindDirDegrees,DateUTC
12:53 AM,72.0,46.0,40,29.86,10.0,SSW,4.6,-,N/A,,Clear,200,2013-07-20 07:53:00
1:53 AM,60.1,50.0,69,29.87,10.0,Calm,Calm,-,N/A,,Clear,0,2013-07-20 08:53:00
2:53 AM,59.0,50.0,72,29.88,10.0,SSE,3.5,-,N/A,,Clear,160,2013-07-20 09:53:00
3:53 AM,64.0,46.9,54,29.88,10.0,SSW,5.8,-,N/A,,Clear,200,2013-07-20 10:53:00
4:53 AM,60.1,46.9,62,29.89,10.0,South,5.8,-,N/A,,Clear,170,2013-07-20 11:53:00
5:53 AM,57.9,46.9,67,29.90,10.0,SE,4.6,-,N/A,,Clear,140,2013-07-20 12:53:00
6:53 AM,66.0,46.9,50,29.91,10.0,SE,3.5,-,N/A,,Clear,140,2013-07-20 13:53:00
7:53 AM,73.9,48.0,40,29.92,10.0,SW,4.6,-,N/A,,Clear,220,2013-07-20 14:53:00
8:53 AM,77.0,53.1,43,29.91,10.0,West,9.2,-,N/A,,Clear,280,2013-07-20 15:53:00
9:53 AM,80.1,55.9,43,29.91,10.0,NW,4.6,-,N/A,,Clear,310,2013-07-20 16:53:00
10:53 AM,82.9,55.0,38,29.89,10.0,Variable,3.5,-,N/A,,Clear,0,2013-07-20 17:53:00
11:53 AM,87.1,52.0,30,29.87,10.0,Calm,Calm,-,N/A,,Clear,0,2013-07-20 18:53:00
12:53 PM,91.0,50.0,24,29.85,10.0,Variable,5.8,-,N/A,,Clear,0,2013-07-20 19:53:00
1:53 PM,95.0,48.9,21,29.83,10.0,NNE,5.8,-,N/A,,Clear,20,2013-07-20 20:53:00
2:53 PM,96.1,44.1,17,29.81,10.0,Variable,6.9,-,N/A,,Clear,0,2013-07-20 21:53:00
3:53 PM,97.0,39.0,13,29.78,10.0,Calm,Calm,-,N/A,,Clear,0,2013-07-20 22:53:00
4:53 PM,99.0,37.0,12,29.76,10.0,Variable,4.6,-,N/A,,Clear,0,2013-07-20 23:53:00
5:53 PM,99.0,32.0,10,29.73,10.0,Variable,4.6,-,N/A,,Clear,0,2013-07-21 00:53:00
6:53 PM,98.1,37.0,12,29.72,10.0,SW,6.9,-,N/A,,Clear,230,2013-07-21 01:53:00
7:53 PM,93.0,42.1,17,29.72,10.0,WSW,4.6,-,N/A,,Clear,240,2013-07-21 02:53:00
8:53 PM,86.0,39.0,19,29.71,10.0,SSW,3.5,-,N/A,,Clear,210,2013-07-21 03:53:00
9:53 PM,80.1,46.9,31,29.75,10.0,Calm,Calm,-,N/A,,Clear,0,2013-07-21 04:53:00
10:53 PM,73.0,48.0,41,29.76,10.0,Calm,Calm,-,N/A,,Clear,0,2013-07-21 05:53:00
11:53 PM,75.9,48.9,38,29.76,10.0,SSW,6.9,-,N/A,,Clear,210,2013-07-21 06:53:00